Location: Mannheim
(49.4880°N, 8.4650°E)
Time: 23:49:03
(UTC+02:00)

ISS - Pass Details

Date: 19 March 2023
Orbit: 413 x 421 km, 51.6° (Epoch: 30 March)

Event Time Altitude Azimuth Distance (km) Brightness Sun altitude
Rises 21:00:35 0° 261° (W) 2,353 0.8 -23.2°
Reaches altitude 10° 21:02:41 10° 264° (W) 1,490 -0.3 -23.5°
Enters shadow 21:04:57 39° 278° (W) 640 -2.4 -23.8°
